Home   Weather   Cuiabá   Past weeks

Flag for Brazil Past Weather in Cuiabá, Mato Grosso, Brazil — Yesterday and Last 2 Weeks

Now
90 °F

Sunny.


Feels Like: 89 °F
Forecast: N/A
Wind: 10 mph from South

Location: Cuiaba Aeroporto

Current Time: Sep 25, 2016 at 5:06:27 PM

Latest Report: Sep 25, 2016 at 4:00 PM


Visibility: 10 mi

Pressure: 29.86 "Hg

Humidity: 36%

Dew Point: 59 °F

Location of CuiabáLocation

Past Weather in Cuiabá — Graph

°F

Cuiabá Temperature Yesterday

Maximum temperature yesterday: 84 °F (at 1:00 PM)
Minimum temperature yesterday: 73 °F (at 6:00 AM)
Average temperature yesterday: 79 °F

High & Low Weather Summary for the Past Weeks

 TemperatureHumidityPressure
High102 °F (Sep 11, 1:00 PM)94% (Sep 20, 5:00 AM)30.07 "Hg (Sep 20, 5:00 AM)
Low70 °F (Sep 15, 5:00 AM)11% (Sep 12, 3:00 PM)29.71 "Hg (Sep 12, 4:00 PM)
Average83 °F51%29.92 "Hg
* Reported Sep 10 4:00 PM — Sep 25 4:00 PM, Cuiabá, Weather by CustomWeather, © 2016

Note: Actual official high and low records may vary slightly from our data, if they occured in-between our weather recording intervals... More about our weather records

Advertising

Cuiabá Weather History for the Previous 24 Hours

Scroll right to see more
 ConditionsComfort  
Time TempWeatherWind HumidityBarometerVisibility
4:00 PM
Sun, Sep 25
90 °FSunny.10 mph36%29.86 "Hg10 mi
3:00 PM90 °FSunny.12 mph31%29.89 "Hg10 mi
2:00 PM90 °FSunny.10 mph31%29.89 "Hg10 mi
1:00 PM90 °FSunny.13 mph36%29.92 "Hg10 mi
12:00 PM86 °FSunny.10 mph43%29.98 "Hg10 mi
11:00 AM86 °FSunny.12 mph40%30.01 "Hg10 mi
10:00 AM82 °FSunny.8 mph51%30.04 "Hg10 mi
9:00 AM81 °FScattered clouds.7 mph58%30.04 "HgN/A
8:00 AM79 °FScattered clouds.3 mph61%30.04 "HgN/A
7:00 AM75 °FPartly sunny.5 mph69%30.01 "HgN/A
6:00 AM73 °FSunny.3 mph74%29.98 "Hg10 mi
5:00 AM73 °FClear.3 mph78%29.98 "Hg10 mi
4:00 AM73 °FClear.6 mph74%29.95 "Hg10 mi
3:00 AM73 °FClear.3 mph78%29.95 "Hg10 mi
2:00 AM73 °FClear.2 mph74%29.95 "Hg10 mi
1:00 AM73 °FClear.3 mph74%29.98 "Hg10 mi
12:00 AM75 °FClear.2 mph69%30.01 "Hg10 mi
11:00 PM
Sat, Sep 24
75 °FClear.5 mph69%30.01 "Hg10 mi
10:00 PM77 °FClear.7 mph65%30.01 "Hg10 mi
9:00 PM79 °FClear.3 mph58%30.01 "Hg10 mi
8:00 PM79 °FClear.7 mph54%29.98 "Hg10 mi
7:00 PM81 °FClear.5 mph58%29.98 "Hg10 mi
6:00 PM79 °FClear.5 mph61%29.95 "Hg10 mi
5:00 PM82 °FSunny.6 mph51%29.95 "Hg10 mi
Weather by CustomWeather, © 2016

See weather overviewHow to use our weather pages